Location: Black Creek
(40.9000°S, 175.5500°E)
Time: 09:17:07
(UTC+00:00)

Explorer 7 - Pass Details

Date: 15 November 2024
Orbit: 455 x 598 km, 50.3° (Epoch: 07 December)

Event Time Altitude Azimuth Distance (km) Brightness Sun altitude
Rises 10:08:41 0° 251° (WSW) 2,553 10.9 -24.8°
Reaches altitude 10° 10:11:33 10° 274° (W) 1,644 9.5 -25.1°
Enters shadow 10:12:13 12° 283° (WNW) 1,493 9.2 -25.2°
